Theta_e
303 303 303 303 304 304 305 303 299 297 297 297 298 300 301 301 300 300 300 300 301 302 300 300 303 303 302 301 303 304 302 301 302 302 301 304 309 309 309 308 306 303 302 302 302 303 303 303 302 301 304 303 302 303 304 302 304 318 323 318 313 308 309 307 305 306 305 306 305 304 304 306 307 306 305 306 307 306 307 307 305 305 307 306 307 306 311 326
303 303 303 303 304 304 303 301 298 297 297 297 298 300 301 300 299 299 299 299 299 300 300 300 301 302 302 301 301 304 303 301 302 301 301 304 307 307 306 305 304 304 303 303 303 302 303 305 301 301 305 303 303 304 304 303 304 314 315 310 307 304 305 306 305 305 304 305 304 304 304 305 307 306 305 305 306 306 306 306 305 306 306 305 306 305 312 323
303 303 303 303 304 304 301 298 297 297 297 297 299 301 300 299 299 300 300 300 299 299 300 300 300 301 302 301 301 304 303 301 301 301 301 304 305 305 305 305 304 304 303 303 303 302 303 304 300 302 306 304 303 304 303 304 305 308 309 307 305 303 303 305 305 303 303 303 304 304 304 305 306 305 305 305 305 305 305 305 305 304 304 305 304 305 312 317
302 303 303 303 304 303 299 297 298 297 297 298 299 300 299 299 299 300 300 299 299 299 299 300 300 300 302 303 303 304 303 302 301 300 302 304 305 305 305 305 304 303 303 303 303 303 302 302 301 305 306 305 306 306 304 303 305 306 306 306 303 302 303 303 302 302 302 302 303 304 304 305 305 304 304 304 306 306 304 304 303 303 304 303 303 308 312 315
302 302 303 302 300 299 298 297 297 297 297 298 299 299 298 299 299 299 300 299 299 298 299 300 300 301 301 303 304 303 304 305 301 300 302 303 304 305 305 304 304 303 303 304 304 303 303 301 305 310 308 306 307 308 306 302 303 304 304 304 302 302 303 302 301 301 301 302 303 304 303 304 303 304 304 304 306 306 304 304 303 303 303 302 305 310 312 313
302 303 303 302 298 297 297 297 297 297 297 298 299 299 298 299 300 299 300 300 300 299 299 299 300 301 301 302 303 302 304 305 300 300 303 303 304 305 305 304 303 303 302 304 304 304 305 303 307 314 310 308 307 306 306 302 302 305 304 305 304 302 302 301 301 300 301 303 303 302 302 302 303 304 304 304 304 304 304 304 302 303 304 306 308 309 310 311
301 302 303 302 299 296 296 297 297 297 297 297 298 298 298 299 299 299 299 300 300 299 299 299 299 300 301 301 301 301 302 301 299 300 303 303 304 304 304 303 303 303 303 304 304 304 306 305 307 311 310 309 308 306 305 304 304 306 306 305 305 303 301 301 301 301 303 302 301 302 303 303 304 304 303 303 303 303 304 304 304 305 306 306 307 307 308 307
299 300 300 300 298 297 296 297 297 298 298 297 298 298 299 299 299 299 300 300 299 299 299 299 298 300 301 301 300 301 300 300 299 301 303 304 304 304 304 303 303 303 304 305 304 304 306 307 307 308 309 308 307 306 304 306 307 307 306 306 306 303 301 301 301 303 303 302 301 302 303 303 304 304 302 301 302 302 303 305 306 305 304 304 304 305 304 304
298 298 298 298 297 297 296 297 298 298 298 297 297 298 298 299 299 300 301 300 299 299 299 299 299 299 300 299 299 301 300 299 299 301 303 304 304 304 303 303 304 304 304 305 305 304 306 308 307 307 308 306 306 306 305 308 307 306 306 306 305 302 301 302 302 303 304 303 303 303 303 302 303 304 302 301 300 300 302 304 305 304 303 302 303 303 302 302
297 297 298 298 297 297 297 297 297 297 298 298 298 298 298 299 300 301 301 301 300 300 299 300 299 299 299 299 300 301 300 298 299 301 303 304 304 304 304 304 304 304 304 305 305 305 305 306 305 304 308 308 306 305 306 307 304 305 307 305 304 302 302 302 302 303 302 303 304 304 304 302 302 303 302 300 299 299 301 302 302 302 302 301 301 300 301 301
296 297 298 298 298 297 297 297 297 298 298 298 298 298 299 299 300 301 300 300 301 301 299 299 300 300 299 299 300 301 299 299 299 301 303 304 304 304 304 304 304 304 304 304 305 305 305 304 302 303 306 306 306 306 305 304 303 304 305 305 303 303 303 302 303 302 302 303 303 304 305 303 302 302 300 299 298 298 299 300 300 301 300 300 299 299 299 299
296 297 298 298 299 298 298 298 298 298 298 298 298 298 299 300 300 300 299 300 301 301 300 299 299 300 299 298 299 299 298 299 299 300 302 303 304 304 303 303 303 303 303 304 305 304 304 303 302 305 305 305 307 306 303 302 304 303 302 305 305 304 304 302 302 302 302 304 301 303 306 304 302 301 300 299 298 297 297 298 298 299 299 299 298 298 298 298
296 297 298 298 299 298 298 298 298 299 299 298 298 298 299 299 299 300 299 300 300 301 300 299 299 299 299 299 298 298 298 298 299 300 301 302 303 302 301 301 301 301 301 303 304 302 302 302 302 304 305 307 306 303 302 302 304 304 303 305 307 307 306 302 302 302 303 304 301 304 308 304 302 300 300 299 297 297 296 296 296 297 297 297 297 297 296 297
296 297 298 299 299 299 299 299 299 299 299 299 299 299 299 299 300 300 300 300 300 301 300 299 299 298 300 299 298 298 298 298 299 299 300 301 302 301 300 300 300 300 300 301 302 301 301 301 302 303 303 305 304 303 305 306 303 304 305 304 305 307 306 303 302 302 304 305 302 305 307 303 302 300 299 299 297 296 296 296 295 296 296 296 296 296 296 296
296 297 298 299 299 299 299 299 299 299 299 299 299 299 299 299 299 299 300 300 300 300 300 300 299 299 302 300 298 298 298 298 298 297 298 300 300 300 300 301 301 300 299 299 300 301 301 300 301 303 302 301 304 307 308 308 305 304 307 306 304 305 306 305 303 302 303 304 302 305 306 303 302 300 299 299 298 297 296 296 295 295 295 295 295 295 295 295
296 297 298 298 299 299 299 299 299 299 299 299 299 300 299 299 299 300 300 300 300 300 299 300 298 299 302 299 298 298 297 298 297 297 298 299 300 300 299 300 302 301 299 298 299 300 300 302 301 302 302 301 304 308 307 307 306 304 306 306 304 305 306 306 305 302 302 302 302 305 305 303 302 300 299 299 298 298 297 296 296 296 295 295 295 294 294 294
295 296 298 298 299 299 299 299 299 299 299 299 299 299 299 299 299 300 300 300 301 300 300 299 297 299 300 298 299 299 297 297 297 297 298 299 300 300 299 299 299 299 299 299 299 299 299 303 304 301 301 300 300 305 310 308 306 305 305 304 304 305 305 306 306 304 302 302 302 302 302 302 302 300 299 298 298 298 297 297 296 296 295 295 294 293 293 293
295 295 297 297 298 299 299 299 299 299 299 299 298 299 299 300 299 299 300 300 300 300 301 299 298 302 302 298 299 298 297 298 296 296 297 298 299 300 299 298 297 297 302 301 299 299 299 303 303 301 300 299 298 303 310 308 305 305 305 305 305 304 305 305 305 305 303 302 302 302 302 301 301 300 299 297 298 298 297 296 296 295 295 295 294 293 293 293
294 295 296 296 298 298 299 299 299 299 299 298 298 297 298 300 301 299 298 299 300 300 301 299 298 300 299 297 297 297 296 298 296 295 296 298 299 300 298 298 298 299 305 304 300 300 299 300 301 300 299 299 298 300 305 305 304 305 305 305 305 305 305 305 304 304 304 303 302 302 301 301 301 300 299 298 297 298 297 296 295 295 295 294 294 293 293 292
295 295 295 296 297 297 298 298 298 298 298 298 298 299 304 309 308 303 299 299 299 298 299 298 297 298 298 298 297 297 298 298 296 294 296 297 298 300 298 299 300 299 302 302 300 300 299 299 300 300 299 299 299 299 300 302 303 305 305 305 306 305 305 305 304 305 305 303 302 301 301 301 301 300 300 299 297 297 297 297 296 294 294 294 294 293 293 292
295 295 295 296 296 296 297 297 297 297 298 299 298 304 311 312 308 303 301 300 298 297 298 297 297 298 298 298 296 296 299 300 296 294 295 297 299 301 300 300 301 298 298 300 301 301 299 299 300 299 299 299 299 298 298 302 303 305 306 307 307 306 306 305 306 307 305 303 301 300 301 301 301 301 300 299 298 298 297 297 296 295 294 294 293 293 292 292
295 295 296 296 296 297 297 297 298 297 299 301 301 302 302 302 301 300 301 303 299 297 299 297 296 298 297 297 296 296 297 299 298 296 294 296 299 303 301 300 301 299 298 300 303 302 299 299 299 299 298 298 298 297 299 304 304 305 307 308 307 305 306 305 306 308 306 303 302 300 301 301 300 300 300 300 299 299 298 297 296 295 294 293 293 293 292 292
295 295 295 296 297 297 297 299 299 299 300 302 302 299 300 300 300 299 300 303 299 296 300 300 297 298 299 297 296 297 297 297 298 297 294 297 299 300 302 301 302 302 300 300 300 300 299 299 299 298 297 298 297 296 300 304 303 303 304 306 306 305 306 307 307 306 305 304 303 302 301 300 300 300 300 300 300 299 298 297 296 296 295 294 293 293 292 291
295 296 295 296 297 298 298 298 299 300 301 300 300 300 300 301 301 299 298 300 300 297 298 299 296 296 298 297 295 298 300 296 297 297 293 296 298 299 301 299 301 304 300 299 299 299 299 297 297 298 297 298 298 297 300 303 304 303 301 302 304 305 304 306 308 306 305 304 303 304 304 302 301 301 300 300 300 299 299 297 296 295 295 294 293 292 292 291
296 296 295 295 297 298 297 297 298 299 299 299 300 300 301 301 299 298 299 303 303 298 297 297 297 296 296 296 296 296 298 296 295 295 294 294 297 300 301 297 300 303 301 301 300 299 298 296 297 298 297 298 298 298 298 299 303 304 301 299 301 303 303 307 309 307 306 306 303 305 307 305 302 301 301 300 300 299 299 297 296 295 294 294 293 292 291 291
296 297 295 295 296 297 297 297 297 297 298 298 298 300 300 300 299 297 301 310 307 298 298 299 297 297 297 296 294 293 299 299 295 294 294 294 294 297 300 297 298 300 299 301 300 297 297 297 298 297 296 299 299 298 297 297 304 306 300 298 299 301 304 308 310 307 306 306 303 304 307 306 304 302 301 301 300 300 299 297 296 295 294 294 293 292 291 290
295 296 295 295 295 296 297 297 296 296 299 298 296 299 299 299 299 297 303 317 310 297 299 301 298 297 298 295 294 297 302 300 295 294 294 293 293 295 299 299 299 297 294 300 303 297 297 300 300 297 297 300 299 297 296 296 303 304 298 299 303 304 308 310 309 307 305 305 304 304 304 305 305 302 302 301 301 301 300 299 297 296 295 294 293 292 291 290
294 294 295 296 295 295 296 296 296 295 297 298 297 298 298 298 298 299 308 313 303 297 298 300 298 297 296 295 296 300 301 298 297 296 294 293 293 295 299 298 298 296 293 301 306 297 296 298 298 298 299 299 297 296 296 296 300 299 297 301 304 304 306 307 308 307 303 303 307 304 302 305 307 303 301 301 301 302 302 300 299 297 296 294 294 293 292 291
294 294 295 295 295 295 295 295 296 295 296 297 298 298 298 297 297 302 312 307 297 297 297 297 298 298 297 299 301 300 299 297 297 295 293 293 292 294 296 293 296 298 295 301 303 296 296 297 296 298 298 297 297 296 297 296 296 296 298 302 302 302 304 304 305 306 303 305 308 304 301 305 308 306 303 302 303 303 302 301 299 298 297 295 294 294 293 292
294 294 294 295 295 295 296 295 295 295 296 297 298 298 297 299 307 311 309 302 297 296 296 297 299 297 298 304 305 299 298 298 295 295 295 294 293 293 292 291 295 300 296 298 301 296 296 297 296 298 298 297 296 296 297 296 295 296 300 304 305 305 306 305 303 301 305 312 308 302 301 302 306 308 306 305 305 303 302 301 300 299 298 297 297 296 294 293
294 294 294 294 294 295 295 295 295 295 296 297 297 299 298 302 318 323 303 296 297 298 298 299 299 298 298 301 301 298 299 299 296 297 298 295 293 293 294 293 297 305 303 301 302 298 296 297 297 297 298 297 296 295 295 295 295 299 304 307 306 305 305 305 305 304 310 315 306 301 300 299 303 307 305 305 304 301 301 301 300 300 299 299 299 298 297 296
294 294 294 294 294 295 295 294 295 296 296 297 297 301 308 308 312 311 302 298 299 298 298 298 299 300 298 297 297 296 298 300 297 296 295 295 294 292 293 293 293 305 309 301 300 300 298 296 296 296 296 295 296 299 299 297 297 301 310 309 305 306 306 308 310 308 310 310 302 300 301 299 303 306 304 304 303 302 301 299 300 300 299 299 299 299 299 298
295 294 294 295 295 296 295 295 296 297 298 299 297 304 321 322 305 299 300 302 297 294 294 297 299 298 297 299 298 296 297 297 297 296 295 297 298 295 294 292 290 297 301 297 298 303 306 302 297 297 296 295 297 299 300 299 297 300 305 305 304 306 307 309 310 303 303 306 300 298 301 303 305 304 303 303 302 301 300 299 301 301 300 300 300 299 299 299
295 295 294 294 295 295 297 297 297 298 299 299 300 306 315 314 303 298 300 300 295 294 295 296 298 296 296 299 297 296 298 297 295 297 298 300 302 300 297 294 292 294 296 299 298 298 304 303 299 298 296 296 298 296 295 297 297 297 297 299 303 305 303 305 307 302 300 303 300 297 301 309 310 303 301 301 300 299 299 299 301 301 300 301 300 299 299 298
296 296 294 295 295 294 296 297 297 299 299 303 314 315 308 304 301 301 303 300 296 296 294 293 296 298 299 299 295 293 296 297 297 298 300 301 300 298 296 294 293 291 294 300 296 293 299 299 298 297 294 295 297 294 294 296 296 295 295 299 302 302 301 300 299 299 297 299 303 302 301 305 305 302 300 300 299 297 298 299 299 300 300 299 299 298 298 298
297 297 295 295 295 295 296 296 298 298 298 311 329 316 305 303 299 299 301 298 297 296 294 296 299 300 304 305 300 296 294 295 297 299 299 297 295 295 295 294 293 291 293 297 294 295 299 299 297 297 295 294 295 294 295 295 294 296 297 299 297 296 301 300 295 293 293 297 303 301 299 302 300 299 300 299 300 299 297 298 298 299 299 298 298 298 298 298
297 298 297 295 295 295 295 296 299 297 298 317 329 306 299 298 295 297 299 297 297 296 296 301 299 297 302 306 304 301 297 294 295 298 299 297 296 296 295 294 291 290 291 293 294 293 296 300 299 296 295 295 292 294 296 294 293 297 299 296 293 294 298 298 296 298 298 298 300 298 297 300 300 300 302 298 299 300 297 297 297 297 298 298 298 298 298 298
297 298 297 295 295 295 295 297 298 296 303 321 323 305 298 297 294 296 298 296 297 297 300 303 298 293 298 304 303 300 298 297 298 300 300 298 297 295 294 294 291 290 290 291 294 293 293 300 301 295 296 296 294 296 298 296 293 294 295 293 293 296 298 298 297 299 300 297 299 300 297 296 298 302 307 303 300 300 298 297 296 296 297 296 297 297 297 298
298 300 298 295 295 295 295 296 294 298 312 322 318 305 298 297 296 294 295 295 296 298 299 300 297 294 296 299 300 298 296 297 299 298 298 297 297 294 292 292 290 291 292 291 294 294 292 298 302 298 295 295 298 300 300 300 298 297 297 295 296 297 296 297 295 294 297 297 298 301 302 303 301 301 307 308 303 299 298 297 297 296 295 295 295 295 296 298
297 301 300 294 295 296 294 295 298 310 319 309 303 299 295 296 298 294 293 294 296 296 296 299 298 297 298 296 296 296 296 297 297 297 296 295 296 295 293 292 290 291 293 292 294 295 292 294 301 300 297 295 297 299 298 298 298 299 299 297 298 295 291 293 293 290 295 299 297 296 302 308 302 298 304 309 306 301 298 297 297 296 295 295 294 295 296 297
296 303 301 294 295 295 294 300 302 304 309 300 294 295 293 296 298 295 293 293 294 294 294 297 297 296 299 297 294 295 297 298 297 297 297 295 295 295 293 293 291 290 293 293 294 295 293 294 297 299 302 302 297 294 295 296 295 297 296 295 296 293 292 296 296 291 291 293 295 295 298 304 299 296 303 307 306 303 298 296 297 296 296 296 295 294 295 296
300 304 299 295 296 293 300 310 297 290 301 301 294 293 294 296 296 295 294 293 294 294 294 296 297 296 298 297 295 295 297 300 299 297 298 295 294 295 293 292 292 291 293 294 294 294 293 294 296 298 300 300 294 292 294 294 293 295 294 293 294 293 296 299 298 296 291 288 291 293 296 302 300 296 300 302 302 301 297 296 297 296 296 296 295 295 294 295
306 303 297 295 295 294 302 310 299 294 300 295 290 292 294 296 296 294 294 294 295 295 295 297 297 295 296 294 295 296 296 298 299 297 298 296 294 295 293 291 293 293 293 293 293 293 294 295 297 299 301 298 294 292 292 291 292 295 294 293 294 294 296 296 295 296 294 291 294 294 297 305 302 296 298 299 297 297 296 296 296 297 296 295 295 294 293 293
304 300 298 296 294 297 303 306 308 306 298 292 294 295 293 294 294 294 295 296 296 295 297 299 295 294 294 292 294 294 292 295 297 294 294 294 294 294 293 292 292 293 292 293 294 292 294 297 298 300 305 305 302 300 298 295 294 296 296 293 293 293 293 293 293 293 295 295 296 298 301 307 303 297 298 299 298 298 298 295 294 296 296 295 294 293 292 292
301 299 301 298 293 296 300 302 309 310 298 296 300 297 295 295 293 293 295 295 295 295 297 297 294 295 294 291 294 293 290 293 295 293 292 292 293 292 292 292 292 293 294 294 293 292 293 295 297 300 305 306 307 307 304 299 295 295 295 293 293 293 292 293 293 294 297 295 293 296 301 302 300 298 298 299 299 300 300 298 295 294 294 293 293 292 292 291
304 303 306 305 298 297 295 291 298 308 304 303 302 297 297 298 294 292 293 294 294 294 296 295 294 295 294 293 297 298 293 290 289 291 292 294 294 291 290 291 292 294 296 294 292 292 293 293 293 298 302 302 303 302 297 294 293 294 294 293 293 293 291 293 295 296 296 294 292 295 297 296 296 296 296 297 297 298 299 299 297 295 294 293 292 292 291 291
303 303 302 304 303 302 299 294 296 303 303 303 300 296 297 298 295 293 291 292 293 293 295 295 294 296 296 295 299 298 293 289 288 290 292 292 293 291 289 290 291 294 295 292 291 292 293 293 293 294 296 296 296 295 292 291 292 293 292 292 292 292 291 292 294 294 294 294 296 296 294 293 295 295 295 295 295 295 296 296 296 296 295 294 292 292 291 291
298 300 294 294 299 302 300 298 299 301 300 300 298 295 297 299 298 297 294 291 292 292 294 295 295 297 297 296 299 297 293 293 294 293 292 291 290 291 291 289 290 294 294 291 291 292 293 294 293 291 293 293 292 292 291 291 291 291 291 290 290 291 291 292 292 292 292 294 297 296 294 294 294 294 294 294 293 294 294 293 293 294 294 294 292 292 292 292
295 298 292 290 296 299 297 294 297 301 302 302 300 296 299 302 300 298 295 293 295 294 293 297 299 297 296 295 295 297 297 298 297 295 294 292 290 292 292 292 291 292 292 291 291 290 293 295 293 290 291 292 291 291 290 289 289 289 289 289 289 289 290 290 291 291 291 292 293 294 293 293 293 293 293 293 293 293 292 292 292 292 292 292 292 292 292 292
297 299 295 294 297 297 295 293 296 302 301 299 300 298 297 302 301 297 293 295 301 296 291 297 300 296 295 294 294 297 298 298 297 294 292 292 291 292 294 294 293 291 291 292 290 288 291 295 293 290 292 294 291 290 289 289 289 289 290 290 290 290 290 290 290 290 291 291 291 291 291 291 291 292 292 292 292 292 292 292 291 291 291 291 291 291 291 291
294 294 294 302 304 296 296 296 296 301 300 297 301 300 297 300 301 297 296 296 299 298 295 298 299 296 294 293 294 296 295 294 295 294 293 293 293 294 294 294 295 294 292 290 290 290 290 293 293 292 296 296 291 289 291 291 290 292 294 295 294 292 291 290 290 290 291 291 291 291 291 291 291 292 293 293 293 292 292 292 291 291 291 291 291 291 290 290
292 290 292 304 307 297 296 297 295 300 303 302 303 301 299 301 298 295 298 296 294 297 297 296 298 298 297 296 296 297 295 293 294 294 294 293 292 293 293 293 294 296 293 290 290 290 290 293 294 293 296 297 291 289 291 291 294 300 301 300 299 296 292 290 290 290 290 290 291 292 293 293 293 294 294 294 294 293 293 293 292 292 291 291 291 291 291 291
Wind_Speed
19 19 18 19 18 18 17 15 13 13 14 14 15 16 15 15 16 17 17 18 16 14 21 27 22 13 6 6 2 8 19 28 41 51 40 28 30 29 30 32 33 29 23 22 22 18 15 17 18 16 14 9 6 5 7 7 5 5 4 4 3 2 2 2 2 3 1 4 6 8 8 5 7 9 7 5 5 7 8 6 9 9 6 10 14 22 27 21
19 19 19 19 18 17 16 13 13 14 14 14 15 15 15 16 18 20 20 20 18 14 15 24 29 19 5 5 7 3 12 22 38 44 36 31 32 30 31 34 33 26 22 23 22 16 11 9 12 13 10 4 5 6 5 6 6 4 4 4 3 1 2 1 1 3 2 4 7 7 6 4 5 7 6 6 8 10 13 12 14 15 15 19 23 29 30 25
19 19 19 19 18 17 14 13 14 14 14 14 14 14 15 17 20 21 22 21 19 15 13 18 28 26 11 4 7 4 2 18 31 29 32 33 31 30 31 32 32 25 19 21 19 13 8 6 10 10 6 5 4 4 6 6 5 3 4 5 2 2 3 2 3 5 3 5 6 6 6 4 5 5 5 8 8 8 12 11 14 15 17 18 20 25 27 24
19 19 19 18 17 16 14 14 14 14 14 14 13 13 14 17 19 21 23 24 22 16 12 13 22 30 19 3 4 4 4 12 17 20 31 31 28 29 29 29 32 27 18 18 21 17 10 8 12 10 6 6 5 4 7 6 3 3 4 4 2 4 3 4 6 7 5 3 4 5 5 5 7 4 7 11 8 8 11 12 13 14 15 16 15 19 21 21
19 19 19 18 16 15 14 14 14 14 14 13 12 11 12 15 17 18 21 25 26 21 13 10 14 26 28 12 3 5 2 6 9 24 30 26 27 27 26 28 30 29 24 21 21 23 21 12 9 8 6 5 6 6 6 6 3 4 4 2 2 2 3 6 8 6 5 2 2 4 5 5 6 4 9 14 10 7 12 14 15 13 12 12 11 15 16 19
18 18 18 17 16 15 15 14 13 13 13 12 11 9 10 12 14 16 17 21 26 26 17 10 7 14 28 28 20 13 8 4 11 26 27 23 26 25 25 27 28 30 30 28 25 24 22 13 8 7 4 5 7 6 3 7 4 5 3 3 2 2 3 6 7 7 5 4 6 5 3 5 6 6 8 14 11 10 13 14 13 10 11 13 14 14 15 17
18 18 18 17 16 15 14 14 13 13 12 11 9 8 8 11 14 14 17 20 22 28 24 14 6 4 11 22 34 30 13 3 16 24 23 22 23 22 23 25 28 32 34 34 28 17 10 11 10 5 4 5 5 5 3 5 7 7 3 4 3 2 5 6 5 6 6 7 6 4 6 11 9 4 9 16 15 15 17 17 13 13 17 18 17 15 15 16
17 17 17 16 15 14 14 14 13 13 12 10 8 6 7 9 12 13 17 20 20 26 30 22 10 3 3 7 17 20 9 7 21 23 20 19 20 21 21 23 27 31 33 32 24 12 6 10 8 2 5 5 2 4 3 5 8 7 3 3 3 3 6 6 6 8 7 6 5 10 15 15 9 1 11 19 17 17 18 17 16 16 18 18 16 15 15 17
17 16 15 15 14 13 13 13 13 13 12 10 8 5 6 7 9 11 14 17 19 22 28 31 18 5 6 5 6 10 7 13 21 21 18 17 18 19 20 23 26 28 29 28 25 19 8 6 6 2 6 3 3 4 4 5 5 3 1 2 3 5 7 8 9 10 7 3 7 16 17 15 12 4 9 18 18 17 16 13 13 14 17 16 13 15 17 18
16 15 15 14 13 12 12 12 12 13 12 10 8 6 5 5 6 9 13 14 16 18 21 28 27 22 17 8 9 10 8 16 22 20 16 15 16 17 20 22 23 25 25 24 25 21 10 4 3 2 6 3 4 4 4 4 2 2 1 1 5 5 7 12 11 12 6 2 7 11 13 15 13 7 8 15 17 16 14 12 13 14 16 15 12 14 17 19
15 15 14 13 12 12 11 11 12 12 12 11 9 7 5 5 6 9 12 12 13 15 17 19 23 29 29 20 13 8 10 18 22 21 16 13 15 17 20 21 21 23 22 22 23 20 14 8 1 2 3 2 3 4 5 3 1 2 1 1 7 6 10 16 13 14 7 2 6 4 10 17 14 12 11 13 15 14 12 12 13 14 13 13 13 13 16 19
15 14 13 12 12 12 11 11 12 13 13 11 9 7 5 6 7 10 11 10 10 12 12 15 18 14 16 21 14 6 12 20 22 21 17 12 13 16 18 18 19 21 19 18 20 22 18 13 9 6 2 2 2 3 3 2 1 3 3 1 9 8 12 16 12 13 7 5 9 1 7 17 14 14 13 12 12 12 11 12 13 13 12 12 12 11 14 18
14 13 12 11 11 11 12 12 13 14 14 13 11 9 7 7 8 10 11 10 9 10 10 11 15 15 13 10 9 12 17 22 23 20 19 16 12 14 17 17 18 19 19 16 16 21 20 15 14 9 3 4 2 1 1 4 3 3 5 3 6 6 9 12 12 14 8 7 14 2 4 9 10 12 12 11 11 11 12 12 12 11 10 11 10 10 12 17
13 12 11 11 11 11 12 13 14 16 17 18 16 12 8 7 8 10 12 13 11 10 10 9 8 16 16 5 5 18 21 22 24 23 23 21 15 12 15 17 18 19 18 16 14 16 17 15 15 8 3 4 2 2 3 6 5 3 5 3 4 4 5 9 11 15 9 7 13 5 6 5 8 12 11 10 10 10 11 11 11 10 10 10 10 10 11 15
12 11 10 10 10 11 12 14 16 18 21 22 21 20 14 7 6 9 10 12 15 13 10 11 8 8 9 3 5 16 22 24 27 28 24 21 19 15 11 11 13 16 18 17 13 11 12 13 13 7 3 3 4 5 4 4 5 4 3 3 4 3 4 7 8 15 9 7 11 8 5 2 7 11 12 10 9 9 10 10 10 10 10 10 10 10 10 13
12 10 10 9 10 11 11 14 16 18 19 19 21 23 24 17 7 4 6 6 13 17 14 13 10 7 6 2 6 13 21 24 26 27 21 17 19 18 15 9 6 9 13 17 15 11 11 10 8 5 4 6 5 4 4 4 4 4 4 2 3 3 4 5 5 12 9 6 11 10 5 2 6 10 11 11 9 8 9 10 11 10 10 10 10 10 9 11
12 10 8 8 9 9 10 12 12 12 12 13 14 16 25 30 16 3 4 3 3 10 15 18 10 6 7 8 7 10 16 20 24 26 22 16 14 19 20 11 7 8 7 13 17 13 11 7 4 3 5 6 4 2 5 5 4 4 4 2 1 2 2 3 4 8 10 8 9 10 8 7 7 9 11 12 11 8 9 11 11 10 9 9 9 10 11 11
12 11 8 7 6 6 7 7 5 6 7 9 11 10 13 24 29 23 12 6 3 5 10 21 15 6 6 12 7 11 18 17 21 26 24 16 11 17 21 13 10 10 4 8 12 10 7 4 3 3 4 6 6 6 5 3 0 1 2 1 1 2 2 3 3 3 7 9 8 8 9 8 9 10 10 12 11 9 10 11 10 11 11 10 10 10 11 11
12 11 9 6 4 2 1 1 2 5 7 10 12 11 6 6 18 29 32 26 14 5 4 11 11 4 2 8 9 16 16 11 16 26 28 21 12 13 19 14 9 8 5 4 6 6 4 3 5 4 5 7 6 6 3 3 3 3 1 1 1 2 2 3 3 2 2 7 8 7 7 7 9 10 10 11 11 10 10 10 10 10 10 10 10 10 10 11
12 11 10 8 4 3 4 5 9 11 12 14 13 7 3 2 6 10 20 24 12 5 5 1 1 3 2 5 11 18 11 5 11 26 32 25 12 10 16 13 6 8 6 2 3 5 4 7 7 4 5 7 6 5 2 2 2 3 2 2 1 1 2 2 3 4 1 4 5 5 6 6 7 9 9 9 10 11 12 11 10 10 10 10 10 11 11 11
11 10 10 9 7 5 6 8 11 12 13 14 7 6 3 2 5 1 4 9 5 5 6 1 1 1 2 3 11 16 6 2 9 25 34 24 9 6 9 9 7 8 6 2 2 5 5 10 6 4 5 6 5 5 2 2 3 3 3 2 1 1 2 2 2 4 2 3 3 2 5 6 6 7 7 8 10 11 12 11 10 10 10 9 10 11 11 9
12 11 8 8 8 7 6 7 8 7 7 10 15 15 6 4 7 5 2 5 2 4 3 1 2 2 3 1 11 13 2 3 10 21 31 22 10 6 4 6 8 7 8 5 3 5 7 9 5 6 4 2 3 4 2 5 5 4 2 2 2 2 1 1 2 3 3 2 1 2 5 5 4 5 6 7 7 7 9 10 9 9 9 9 9 10 10 9
12 12 10 6 6 7 7 8 8 5 7 14 19 16 9 9 9 5 4 5 1 2 1 2 3 3 4 3 11 11 4 6 5 12 24 18 7 4 3 6 7 5 8 7 6 6 6 5 6 4 3 3 4 6 6 5 4 4 4 2 1 2 1 1 1 2 3 2 1 1 3 3 3 3 5 5 5 4 7 8 8 7 7 8 8 8 9 10
11 13 12 7 5 5 6 7 6 8 14 18 19 16 11 9 7 5 4 3 2 1 0 1 2 2 4 4 13 9 3 4 0 8 19 12 2 2 4 3 4 5 5 5 8 9 5 3 4 3 5 4 3 6 8 5 3 2 2 2 2 3 2 3 1 2 3 2 1 2 1 1 2 3 3 2 4 3 4 6 7 7 7 6 7 8 9 9
11 12 13 10 5 3 4 5 6 11 13 14 15 13 11 8 5 5 4 3 4 2 1 1 1 6 5 7 15 6 2 3 2 6 14 9 4 1 3 1 3 6 5 4 7 7 3 2 2 5 7 5 4 6 5 3 1 3 1 2 4 4 4 3 3 3 3 2 2 2 1 3 3 2 3 2 1 2 3 4 6 7 7 6 7 8 8 8
11 11 13 12 8 4 2 3 6 8 7 8 10 8 8 6 4 4 3 5 5 4 4 3 2 9 9 10 14 5 2 4 2 7 13 11 5 2 3 3 2 4 2 2 4 2 2 4 4 4 4 6 6 4 1 2 3 2 2 3 4 2 1 1 3 1 1 1 2 3 1 3 3 2 2 2 3 0 3 2 2 3 5 6 6 6 7 7
12 11 12 14 11 7 3 2 3 4 4 4 5 6 6 4 3 2 2 5 5 2 4 5 3 9 9 10 13 4 2 8 5 8 14 14 8 1 4 3 2 3 1 3 3 1 3 6 7 6 6 7 6 3 1 3 4 1 3 2 1 3 2 2 3 2 0 2 3 4 2 1 2 2 3 2 3 2 0 1 2 1 3 4 4 5 6 6
12 12 11 12 13 12 7 4 4 4 4 3 4 5 6 4 2 2 5 4 3 1 1 3 3 7 7 8 12 6 1 7 3 7 16 15 9 3 3 2 2 2 1 5 3 2 1 4 6 6 7 6 2 4 4 2 2 3 3 2 2 3 2 3 4 2 1 2 3 5 3 1 3 3 2 0 2 4 3 3 3 2 1 2 3 4 5 5
11 11 11 9 10 12 10 8 7 6 4 3 4 5 6 4 1 3 6 3 2 1 1 2 3 5 8 7 8 5 3 4 2 7 14 11 9 6 4 0 2 2 4 5 4 3 1 1 2 2 3 3 5 6 3 3 2 4 2 2 2 3 4 3 4 2 2 3 1 5 3 2 3 4 1 1 2 4 4 4 4 3 2 1 1 2 4 3
10 10 11 9 6 7 8 10 9 6 3 3 4 4 5 2 4 5 3 1 1 1 1 2 3 4 7 7 5 5 5 4 2 6 7 5 8 8 4 1 2 4 4 5 3 2 3 1 2 3 1 2 5 5 2 3 3 2 1 3 3 3 4 3 2 2 3 3 3 4 1 2 1 4 3 2 3 4 3 3 3 4 3 3 3 2 2 3
9 11 11 11 10 7 5 6 8 5 3 4 4 3 2 1 5 7 1 2 1 2 2 4 3 3 7 6 3 5 5 4 5 6 6 4 7 7 4 3 4 4 4 6 3 3 5 3 0 1 1 1 2 2 1 2 1 2 2 3 2 4 4 3 4 4 4 2 4 3 2 1 1 4 4 5 5 5 4 4 4 5 4 4 3 3 3 2
9 11 11 12 12 11 7 5 6 5 3 4 3 3 3 2 4 3 2 3 2 2 2 2 3 4 5 3 3 5 4 4 4 5 4 4 5 6 5 4 3 4 5 4 4 4 2 2 3 3 1 3 3 2 3 5 5 5 3 5 3 3 4 3 4 3 0 4 3 1 3 0 3 5 5 7 8 7 6 6 6 6 5 4 4 4 3 2
9 10 11 12 12 11 9 6 5 4 4 4 4 5 6 5 2 2 3 3 1 2 1 1 3 3 3 3 4 5 2 2 4 5 3 2 5 4 4 4 3 2 2 2 4 5 3 4 5 5 2 3 5 4 3 4 5 5 2 3 1 1 4 3 3 2 3 5 4 3 3 1 3 4 5 8 9 8 7 6 6 6 6 5 4 4 3 3
8 10 11 12 12 10 9 7 4 2 4 4 4 5 6 4 1 1 2 3 1 3 2 1 4 3 3 3 3 4 2 2 4 5 4 4 5 4 4 5 6 3 1 2 2 2 3 4 5 4 2 4 5 3 1 0 3 3 2 3 1 3 2 2 3 1 4 5 5 4 1 2 2 2 4 6 5 5 5 5 5 4 5 4 3 3 4 4
5 9 11 12 13 11 9 7 4 1 4 3 6 6 4 0 3 1 2 4 1 2 2 1 3 4 4 3 3 2 1 2 3 5 5 4 3 2 3 4 5 4 2 2 1 0 1 5 5 2 2 2 4 2 1 3 2 2 1 2 1 3 3 1 3 4 2 3 4 3 2 4 3 3 4 2 2 3 4 4 4 4 5 3 3 4 5 5
2 5 9 12 14 13 10 7 3 1 3 4 7 4 2 3 3 2 2 2 1 1 1 3 4 4 3 4 3 3 1 1 2 4 3 2 1 1 1 2 3 3 2 2 1 1 2 4 5 3 1 2 2 2 0 2 1 1 2 1 1 2 4 3 1 1 2 0 3 2 3 4 3 4 3 1 1 4 4 5 5 6 6 4 5 6 5 5
1 2 5 10 15 15 10 7 2 2 2 6 6 2 2 3 3 3 2 1 2 2 3 1 2 3 2 3 3 4 2 1 2 3 1 1 1 2 1 1 1 1 1 2 1 0 1 4 4 2 1 2 1 1 1 0 1 2 1 2 1 2 3 3 0 3 4 1 4 2 3 5 2 2 3 1 4 7 6 6 6 6 6 6 7 7 6 6
2 1 1 8 15 15 10 7 2 2 3 7 4 1 2 1 2 2 1 2 2 3 4 2 1 1 2 2 3 4 3 2 2 3 1 1 1 3 2 0 1 1 1 2 1 0 0 3 5 1 1 5 2 1 2 2 1 2 1 1 2 2 2 2 2 2 3 2 5 4 4 4 3 3 3 4 9 10 8 7 7 8 8 8 8 8 8 7
2 1 1 8 14 14 10 5 1 3 5 5 2 1 1 1 2 2 1 0 2 2 3 3 1 1 3 3 2 3 3 3 2 2 0 0 1 3 3 2 2 1 1 3 3 1 1 0 4 2 1 4 4 2 0 3 3 3 2 2 2 3 2 1 2 1 0 1 3 5 5 3 5 5 5 8 10 11 9 8 8 10 10 9 8 8 8 7
2 2 1 7 15 12 7 5 4 5 6 3 3 1 1 1 3 2 2 1 1 1 1 3 2 1 3 3 2 1 2 2 0 0 1 1 0 1 2 3 2 2 2 3 3 1 1 2 3 5 3 2 2 1 2 2 1 3 3 3 3 2 1 0 1 2 2 1 0 2 5 6 5 4 6 8 9 9 9 9 9 10 10 9 9 8 7 7
3 3 2 9 17 12 4 7 7 4 3 2 1 0 1 1 1 2 2 1 1 0 1 3 3 2 2 2 1 1 0 1 0 0 2 2 0 1 2 3 3 2 2 2 2 1 1 2 3 4 4 2 2 2 1 2 2 1 0 0 0 1 2 2 3 3 1 2 3 2 4 8 5 3 6 7 6 7 8 8 9 9 10 10 9 9 9 7
4 2 3 10 16 10 3 6 3 2 3 2 1 1 1 1 2 2 2 1 1 0 1 3 2 2 3 2 1 2 1 0 1 0 2 3 2 3 2 3 4 2 2 1 0 2 2 2 1 4 5 3 2 1 1 1 2 2 1 1 2 2 3 4 2 3 1 1 1 2 2 8 6 3 4 5 4 5 5 6 8 8 8 9 9 9 8 8
3 1 2 11 14 5 4 5 2 2 2 1 1 1 1 1 1 1 2 2 1 1 2 2 1 1 1 1 1 2 1 1 2 2 1 2 3 3 2 4 4 2 2 1 1 1 1 3 0 4 5 3 3 2 2 2 2 1 1 1 2 1 2 3 3 2 1 2 2 2 3 7 5 2 3 4 4 5 4 5 7 7 7 7 8 8 7 8
1 2 1 10 11 2 4 2 0 2 1 1 1 1 1 0 1 1 1 1 1 1 1 1 0 1 0 1 3 2 1 1 1 1 0 1 2 0 3 4 2 1 0 1 1 1 1 1 1 3 5 6 5 4 4 4 1 2 2 1 2 3 5 3 2 2 1 4 5 4 4 7 4 2 2 3 3 5 5 5 6 7 7 6 6 7 7 7
2 0 2 7 10 8 5 2 4 4 1 1 3 1 0 1 1 1 1 1 0 1 1 1 0 2 2 2 3 2 1 2 1 1 2 1 3 1 3 3 3 1 2 2 1 1 2 2 2 2 1 3 4 4 4 3 2 2 2 2 3 4 6 3 1 2 2 4 5 5 6 7 6 3 4 5 3 5 7 5 4 6 7 7 6 6 6 6
2 1 2 5 9 9 4 1 4 5 3 3 2 1 1 2 1 1 1 1 0 2 1 1 0 2 2 2 2 2 3 3 2 1 2 2 3 1 1 2 2 2 2 3 4 3 2 1 3 4 5 5 5 6 2 1 3 5 5 5 5 5 5 4 3 3 5 3 3 8 9 11 15 10 6 7 6 5 7 6 5 6 7 8 8 7 7 6
2 2 1 2 4 4 4 3 4 4 3 2 2 1 2 1 1 1 1 0 0 1 1 1 1 2 2 2 2 0 1 2 3 1 3 3 2 2 1 2 2 4 4 4 3 3 3 2 4 5 8 8 7 8 5 3 6 9 10 8 7 7 7 7 7 6 4 4 5 9 7 9 17 12 7 9 8 6 8 7 7 7 7 7 7 7 7 7
2 2 1 1 0 1 2 2 2 5 4 2 2 1 2 1 1 1 1 1 2 1 1 1 2 4 5 5 3 1 1 2 3 3 3 2 2 3 2 2 2 3 3 2 2 3 3 3 4 3 6 9 9 10 9 7 8 9 11 12 10 8 10 13 14 10 7 6 11 7 3 8 16 15 13 12 8 6 10 9 7 7 7 7 7 7 8 9
2 2 0 2 1 2 1 0 3 5 5 3 2 2 3 4 4 3 2 2 2 2 2 2 5 6 6 5 4 2 3 2 2 4 3 2 2 1 1 1 1 1 2 2 1 1 3 3 2 1 5 8 8 9 8 6 7 8 12 15 13 12 14 16 15 12 11 14 17 13 12 16 19 18 18 16 9 6 9 9 7 8 9 8 7 8 9 9
1 2 1 2 3 2 1 1 3 4 3 2 0 2 4 6 6 4 2 4 2 1 3 5 6 5 6 6 5 4 7 6 2 3 4 3 2 2 2 2 2 2 1 2 1 1 1 2 0 2 4 8 5 5 5 4 7 11 15 17 15 14 15 16 14 12 11 14 18 17 15 17 20 17 13 13 10 7 7 10 10 9 9 8 8 9 10 10
2 2 3 4 3 0 0 1 3 4 1 0 3 3 3 6 7 5 3 5 6 6 7 8 5 3 3 5 7 9 9 8 5 4 7 6 3 3 3 2 4 4 2 3 1 1 2 1 2 4 3 6 3 5 8 8 9 13 19 21 16 12 10 10 10 11 13 14 13 9 8 13 15 10 6 8 8 6 8 10 9 8 8 7 8 10 10 11
4 2 2 4 2 1 1 1 2 2 1 3 4 4 3 4 6 5 2 2 3 5 7 9 7 5 3 5 10 13 10 7 7 5 6 5 2 2 3 3 5 5 4 4 2 1 3 2 1 2 2 6 4 5 8 9 10 10 12 11 8 8 8 7 5 9 15 13 7 6 9 11 8 5 5 8 8 6 8 8 7 8 8 8 9 10 10 11
Wind_Direction
20 19 18 18 18 18 20 24 39 52 58 61 57 56 53 51 47 40 37 29 24 20 19 20 17 358 292 225 235 40 35 31 38 39 36 13 356 358 356 360 2 360 2 10 28 37 31 30 22 33 52 40 10 340 358 7 10 37 66 65 62 33 20 95 39 353 325 302 319 327 340 356 328 332 324 337 14 345 345 3 358 348 346 2 357 353 351 349
19 19 19 19 19 20 25 34 50 59 61 62 59 59 57 56 51 43 37 29 22 13 15 21 24 19 349 212 217 83 41 28 37 33 19 5 3 5 4 9 11 6 10 22 29 28 36 15 1 33 48 34 1 348 6 6 16 57 92 69 67 53 298 162 43 341 338 296 304 310 326 349 325 322 333 354 344 355 12 354 352 355 338 345 349 351 359 3
18 19 19 19 17 20 33 48 59 63 62 62 63 63 64 60 51 43 36 30 22 11 11 20 27 26 22 177 194 180 349 22 37 21 1 4 6 7 9 12 14 17 24 33 35 34 53 33 24 51 55 45 13 351 25 7 14 56 83 72 29 329 302 286 326 327 301 281 301 307 314 328 315 317 352 352 331 4 21 352 346 343 330 332 339 350 0 7
17 18 17 18 18 24 43 58 62 63 62 62 66 68 69 61 50 44 37 33 26 13 7 16 31 30 29 131 170 190 243 32 36 351 352 4 4 7 12 14 17 24 35 44 44 46 60 51 45 60 67 46 351 8 32 355 21 44 61 84 332 323 346 344 331 318 306 282 267 289 324 341 324 345 21 11 6 4 357 339 333 321 315 321 334 355 2 11
17 18 16 20 31 40 54 63 64 63 60 61 68 74 72 60 48 44 40 35 29 21 7 11 35 38 42 58 157 200 207 49 356 341 354 0 4 9 12 16 21 26 39 51 45 45 48 40 44 53 57 47 358 23 20 335 44 70 49 82 311 337 16 337 328 330 326 312 295 333 5 336 326 31 33 30 33 345 326 319 313 307 313 330 356 4 4 16
16 17 15 22 39 51 58 63 62 59 56 59 68 74 68 50 39 38 37 34 31 27 17 8 20 43 51 59 76 86 87 84 323 340 356 359 6 10 14 19 23 28 40 48 39 40 41 27 46 53 42 56 32 44 357 333 51 92 39 360 334 30 27 332 331 348 344 27 26 356 347 336 5 49 32 31 21 332 322 316 310 329 2 21 28 18 16 21
17 17 17 21 36 52 58 59 57 53 51 56 65 69 59 39 35 36 33 31 31 32 29 22 18 59 59 59 65 66 77 63 336 347 358 2 9 9 16 23 26 32 38 39 32 32 34 30 51 67 60 64 46 45 357 0 47 80 64 1 357 24 19 341 335 358 14 46 25 358 28 14 18 57 30 19 359 344 340 343 4 28 34 39 34 25 25 23
19 21 25 29 39 51 56 56 51 48 49 55 64 65 50 35 39 40 35 31 29 33 35 36 36 80 74 50 60 59 59 351 345 357 3 3 13 11 17 26 29 33 36 36 31 25 22 38 47 85 67 52 50 40 14 42 43 58 75 341 341 2 6 357 7 18 28 51 33 42 43 19 3 63 39 13 350 350 346 355 25 38 36 36 31 26 23 22
24 28 35 40 46 52 56 56 51 49 48 53 60 60 44 37 42 36 28 27 30 34 37 42 47 69 92 87 80 62 20 347 353 5 8 6 15 16 22 27 27 31 34 34 33 35 36 39 23 60 90 77 76 39 358 51 48 39 88 298 7 0 4 14 20 19 16 38 42 48 46 22 3 13 36 9 351 348 343 358 22 31 37 34 26 25 25 25
29 34 40 44 49 55 58 57 51 46 42 45 49 49 42 33 31 21 16 20 27 32 35 44 52 64 79 87 78 67 355 354 11 16 14 11 14 22 28 27 26 29 31 30 31 36 42 34 346 73 103 92 62 36 6 46 67 357 263 147 39 347 6 21 17 11 5 56 52 61 55 31 20 36 28 356 350 348 345 6 20 30 38 32 24 24 28 28
37 40 43 45 50 56 60 56 47 41 37 37 37 37 36 26 17 3 4 14 19 27 33 40 48 59 64 64 75 70 358 7 20 23 22 15 16 26 30 28 28 27 28 29 29 29 28 25 21 132 81 73 51 27 28 48 158 13 304 116 8 350 23 19 8 1 351 30 30 94 59 29 26 36 17 346 350 350 351 12 21 31 33 28 27 24 30 29
43 44 45 48 52 57 61 56 46 40 36 32 25 19 12 356 347 341 346 1 8 13 22 34 41 50 54 56 66 43 14 17 19 30 33 21 26 31 34 36 34 31 28 28 26 26 26 29 59 87 58 110 71 14 37 45 114 54 65 72 345 4 31 14 359 350 349 7 345 234 53 22 24 22 3 350 354 349 4 21 21 28 26 23 26 27 35 32
47 46 47 52 56 60 63 59 54 50 46 39 29 15 4 356 352 357 7 11 7 11 17 29 40 51 58 61 55 31 24 20 21 36 38 35 46 48 48 48 43 37 32 32 29 31 34 37 61 81 71 88 76 355 61 23 47 43 38 55 350 13 18 1 357 350 7 9 340 358 81 16 24 17 2 359 357 357 15 24 21 23 22 21 25 27 34 32
50 48 52 59 62 67 70 70 68 62 56 48 39 27 19 29 34 34 37 33 26 20 21 16 27 54 60 85 60 29 20 22 29 30 26 31 45 53 55 54 49 42 35 36 33 33 40 47 65 81 58 71 62 18 32 9 32 22 4 27 17 36 346 337 360 4 15 351 344 51 103 24 28 16 7 4 1 9 19 23 22 22 21 21 25 27 31 32
53 52 58 65 69 75 79 80 76 70 64 56 47 39 28 18 15 28 37 41 41 32 29 30 32 63 66 79 48 19 14 23 24 18 15 20 27 22 16 30 41 39 36 37 33 27 31 44 60 63 11 35 43 41 33 7 28 21 17 20 4 35 336 326 4 17 14 326 354 58 107 33 35 20 11 6 4 14 23 24 22 22 22 22 24 25 28 29
53 55 62 69 75 81 88 89 83 76 67 56 48 42 38 30 348 350 29 44 46 41 42 31 25 77 94 15 352 4 10 11 8 11 14 15 20 11 0 8 12 26 40 39 39 33 17 30 53 47 21 21 31 54 55 31 16 14 50 60 351 5 357 335 357 15 15 356 14 47 88 47 23 19 14 10 7 12 27 27 22 23 21 21 25 22 25 26
50 55 62 67 76 88 98 98 92 79 60 45 41 42 48 45 38 3 309 299 12 29 38 22 11 105 71 9 358 356 349 350 359 10 12 10 14 13 15 22 352 353 39 33 32 30 10 19 47 44 44 30 13 53 69 43 5 359 30 71 347 348 9 352 335 356 16 39 39 47 67 50 18 15 18 14 7 10 29 29 23 24 23 23 24 24 26 26
48 51 55 61 75 92 106 109 94 61 30 15 12 13 39 48 52 56 46 53 21 345 24 15 17 104 32 5 356 329 324 335 0 8 10 9 6 13 18 22 360 356 26 19 20 20 0 23 69 85 61 34 20 35 67 78 11 322 5 52 349 340 39 11 338 340 18 45 53 52 58 45 26 22 21 14 8 17 33 33 27 22 24 24 22 26 26 26
47 47 49 49 60 73 122 166 335 336 339 340 335 337 343 26 51 52 49 58 57 29 35 357 11 110 319 333 322 328 326 326 3 10 10 7 356 8 16 17 17 26 42 7 8 13 6 44 52 49 20 4 5 22 67 167 181 187 207 103 335 337 10 328 313 301 16 52 46 51 60 44 31 26 23 14 10 20 29 33 34 24 22 24 21 24 24 27
45 46 48 42 32 350 300 295 313 310 318 325 317 330 17 27 37 28 34 53 68 84 104 265 350 106 315 303 323 343 343 311 10 14 10 2 349 1 11 8 19 43 42 356 351 350 26 62 45 20 335 319 324 330 290 207 170 155 133 83 272 289 5 315 318 320 286 82 44 52 69 50 40 32 25 18 14 20 20 22 30 26 22 23 21 21 22 24
38 40 47 44 34 0 325 312 318 324 333 338 357 65 117 124 75 83 5 55 74 80 89 142 164 83 300 289 338 352 355 294 6 12 9 5 3 10 3 1 24 34 11 327 340 333 41 62 32 328 299 286 303 307 256 121 80 92 105 69 6 28 32 323 300 325 343 86 37 37 65 48 46 45 34 27 24 21 15 13 19 23 24 22 20 21 20 18
33 31 36 39 40 24 357 346 348 359 14 37 71 87 115 125 107 137 122 93 50 32 79 16 60 20 299 336 356 352 352 356 356 3 6 8 26 39 2 14 41 31 356 355 13 359 43 51 350 306 308 294 324 340 57 83 70 61 48 59 29 8 21 283 272 330 2 76 58 40 66 48 30 54 56 42 36 22 9 9 12 17 24 25 22 20 17 14
34 29 24 23 38 32 29 37 31 50 80 81 85 94 111 98 99 118 87 100 70 348 351 23 62 4 356 36 359 356 53 35 349 346 358 6 28 53 65 36 44 36 6 15 39 45 51 18 332 315 348 42 28 18 44 57 52 55 49 73 278 309 333 250 268 1 17 77 166 279 73 55 2 40 64 67 71 34 1 4 9 13 23 27 26 21 18 17
34 30 23 18 30 37 44 46 50 81 86 90 94 102 116 102 85 83 77 90 49 345 232 49 135 30 21 2 352 2 90 43 315 336 356 11 27 35 79 67 56 44 5 14 51 71 79 314 320 359 23 57 69 32 40 47 20 353 63 107 241 288 303 292 327 21 9 23 327 275 245 319 344 3 19 63 95 72 10 359 4 8 15 23 27 25 22 22
34 31 24 17 17 40 50 36 59 86 83 86 98 110 116 110 83 68 82 72 15 320 347 58 96 23 2 345 354 3 131 35 87 349 352 15 16 7 65 86 83 32 345 11 54 70 62 318 357 15 7 27 62 45 36 65 24 318 295 195 233 249 278 315 21 14 348 351 351 8 248 277 306 335 352 356 25 81 62 10 358 359 8 16 22 25 23 21
37 34 27 23 20 21 27 26 60 86 83 75 95 121 126 119 101 75 89 65 13 316 357 5 11 7 352 344 346 345 84 2 355 8 5 12 5 143 68 355 59 30 322 53 64 84 354 347 44 42 7 22 37 40 28 125 90 355 301 260 230 197 232 358 60 19 317 265 322 32 135 260 296 307 316 326 318 71 97 39 342 351 8 12 13 24 25 17
40 37 33 33 33 34 47 58 62 76 65 63 98 133 148 137 112 82 70 46 8 313 353 341 338 4 353 345 347 20 91 319 320 21 13 5 350 102 68 6 29 26 219 111 47 10 344 349 14 26 22 31 28 352 296 130 107 318 313 343 142 136 144 139 106 100 255 269 315 15 78 227 298 271 250 288 319 303 63 326 298 2 21 6 1 19 30 22
42 40 41 40 43 49 58 63 59 60 56 76 112 135 158 159 149 89 79 67 341 325 19 314 328 360 349 351 10 59 135 313 352 360 352 6 6 17 65 50 101 357 322 102 84 274 321 352 355 12 19 23 344 291 284 157 122 272 286 30 114 125 120 119 97 97 3 27 337 334 21 63 282 275 244 8 335 296 277 266 282 308 22 3 352 4 23 21
41 42 42 41 49 53 54 59 64 64 64 105 114 126 155 153 125 68 75 104 295 353 167 317 349 347 345 358 17 42 357 353 69 325 339 14 16 22 69 223 130 61 346 71 119 232 232 213 212 107 43 351 279 280 263 172 257 267 236 57 59 57 53 61 68 80 34 50 311 300 6 79 281 287 289 324 268 265 259 241 255 265 231 204 313 341 2 1
39 42 41 39 49 52 52 53 50 51 66 114 126 128 143 116 66 65 57 201 289 331 238 10 7 329 1 16 360 7 17 3 338 328 346 16 357 15 88 230 81 85 2 24 84 250 308 291 181 137 102 261 266 280 231 205 262 271 73 38 23 16 30 42 33 63 50 7 265 269 346 93 313 286 240 233 225 214 233 250 251 247 232 226 243 256 318 333
33 37 39 41 44 42 50 43 33 41 82 116 127 102 101 24 61 90 119 247 260 318 356 24 355 2 32 44 355 349 9 342 338 7 6 360 360 11 36 11 21 52 15 4 360 329 345 356 288 251 308 315 298 307 310 291 347 75 69 50 19 326 1 20 351 34 61 294 256 261 302 130 187 266 230 224 231 202 201 231 232 231 232 234 244 246 249 278
32 32 37 43 45 43 50 43 29 52 96 117 98 52 72 31 28 100 275 323 348 315 6 348 321 17 30 48 16 339 339 334 356 39 9 356 33 30 30 27 2 19 13 343 334 344 337 262 306 322 321 5 12 25 335 333 25 43 44 59 39 332 4 7 332 10 63 253 255 348 347 263 222 246 217 211 230 220 207 213 210 210 218 225 236 241 242 256
35 33 35 40 42 39 42 38 34 73 117 115 70 42 77 73 25 215 278 331 9 327 5 306 321 6 7 19 12 335 346 344 345 21 15 17 48 40 34 36 34 44 4 328 347 358 336 289 343 9 334 355 37 54 351 326 9 22 70 90 61 50 32 330 292 329 288 273 289 347 7 317 277 266 212 205 218 215 206 205 202 200 203 212 220 227 248 263
40 39 35 35 36 30 27 19 17 101 138 108 70 52 64 58 230 181 289 269 268 342 10 351 327 359 34 37 347 322 27 8 344 16 12 23 41 17 1 9 25 63 86 37 30 27 11 305 338 23 338 353 30 46 43 239 352 351 154 125 117 143 121 271 243 248 281 290 302 326 2 211 252 278 223 218 229 225 211 203 204 216 221 227 242 255 262 261
45 41 32 28 26 19 17 7 353 142 155 98 63 63 77 207 236 171 257 251 257 344 332 354 17 35 14 349 324 343 57 309 348 37 22 31 60 9 357 342 0 44 86 38 353 104 58 267 281 333 298 27 27 336 111 110 6 319 148 79 46 168 146 159 188 187 210 304 304 296 244 221 225 264 260 252 277 249 227 213 204 230 248 253 263 259 248 247
34 33 27 21 14 9 10 4 347 184 162 88 62 62 143 201 207 158 181 208 129 122 309 338 34 51 347 321 334 350 19 289 358 39 23 47 126 238 19 283 321 34 74 85 26 351 357 276 289 340 306 117 68 296 112 107 307 349 48 41 242 173 125 113 209 211 108 8 290 281 270 288 313 298 285 116 219 242 229 222 213 221 237 239 243 246 240 241
294 358 18 14 8 3 2 1 357 185 134 81 82 112 204 202 189 171 158 135 149 118 83 354 359 41 318 303 320 316 323 303 25 44 6 24 123 185 144 268 256 76 109 136 135 332 338 283 295 29 238 245 152 234 305 159 173 51 33 230 201 79 77 95 7 346 42 11 288 308 280 292 329 316 312 177 226 244 233 224 227 229 231 232 236 239 238 238
301 317 13 8 4 1 360 3 27 149 81 67 79 156 187 178 188 187 169 130 145 85 80 131 252 63 195 237 306 307 330 335 16 48 28 330 94 171 159 156 162 114 161 143 114 325 104 297 302 83 208 296 349 86 292 307 43 80 116 192 110 71 11 24 48 3 16 336 297 307 299 270 216 223 261 221 221 231 226 219 227 231 226 225 233 238 240 243
340 5 21 2 1 1 2 7 79 98 64 72 118 186 170 208 264 244 235 119 118 95 98 169 193 70 167 190 278 305 343 360 11 43 71 343 76 165 162 179 181 142 148 129 124 220 145 34 294 286 257 302 345 57 218 312 349 23 40 8 37 119 145 13 40 76 200 299 302 318 329 284 228 212 202 212 221 220 215 213 220 226 224 222 226 231 234 233
41 32 313 350 357 355 358 26 56 60 57 103 175 173 88 260 283 281 256 259 98 102 165 180 158 120 198 219 260 297 353 10 350 348 249 231 112 184 182 188 186 167 143 105 107 172 74 117 251 297 337 320 319 19 161 192 318 355 11 1 358 47 113 100 14 70 125 145 211 325 317 277 244 203 190 212 223 213 206 208 218 225 223 223 225 225 228 225
64 36 284 344 353 340 346 45 45 53 73 99 135 52 34 177 272 324 284 249 104 104 177 148 144 149 178 209 260 211 35 2 294 282 268 249 203 233 213 174 169 171 131 83 91 153 123 142 223 301 332 302 249 257 191 181 184 175 218 223 161 55 86 71 332 328 84 130 171 161 292 277 259 193 200 217 220 217 212 207 219 228 223 223 225 222 223 224
74 49 287 342 348 333 16 57 46 82 94 78 39 304 318 95 85 1 325 2 66 52 67 101 126 138 149 170 197 163 143 307 227 213 254 241 220 234 223 136 142 150 120 109 234 197 144 107 168 267 273 259 261 324 29 94 155 156 211 199 129 116 108 112 267 274 111 89 160 122 267 272 263 201 214 235 232 232 226 212 224 238 232 229 230 228 226 228
84 169 284 349 347 343 75 53 3 45 59 263 249 259 310 66 81 352 331 355 23 9 28 65 135 111 146 173 130 140 188 226 194 189 228 248 254 237 174 134 131 99 85 114 266 233 112 84 86 278 289 309 342 4 28 41 91 149 248 154 138 150 117 140 180 195 172 194 152 102 270 270 274 241 224 249 258 257 247 225 230 245 251 245 240 239 233 232
113 210 268 359 357 35 100 72 114 67 6 297 25 33 303 100 107 70 328 309 351 103 73 71 136 24 95 98 98 135 230 288 207 247 244 204 259 250 124 152 170 109 147 234 215 235 254 113 86 353 338 339 350 353 343 345 351 217 238 208 170 118 95 110 147 89 281 222 157 145 248 256 271 329 301 284 296 287 266 233 224 240 253 254 249 248 243 238
61 240 271 4 29 67 97 154 147 124 133 49 59 79 87 53 68 141 178 227 166 135 125 335 5 73 86 69 58 58 2 357 272 311 5 278 265 347 91 178 204 171 248 257 101 132 232 229 129 87 10 298 304 299 298 311 291 245 226 214 212 148 135 160 126 97 247 231 158 177 237 261 274 306 317 307 320 301 282 264 236 238 249 256 254 253 250 243
73 57 309 344 30 60 78 125 106 112 153 146 102 139 123 85 333 320 121 128 115 112 82 335 112 81 78 91 57 15 326 331 350 338 318 271 264 302 110 173 192 207 188 102 81 91 87 286 241 193 202 229 254 258 264 4 296 275 261 227 207 189 166 135 104 171 206 179 195 228 241 274 281 278 279 282 282 280 277 276 268 256 251 253 253 252 254 250
84 103 11 329 1 40 52 34 60 96 155 158 126 174 163 147 315 347 76 188 26 97 54 338 160 160 187 174 140 70 281 327 344 291 245 244 254 290 256 154 176 232 191 112 64 94 88 304 253 219 235 253 270 279 295 311 269 265 269 255 217 195 172 165 199 210 152 121 250 243 214 250 274 278 269 268 273 275 272 267 264 262 255 249 250 252 255 255
55 147 153 127 282 33 43 27 83 92 84 91 104 128 143 154 218 205 189 346 10 82 150 309 242 206 190 171 155 150 176 325 306 253 243 254 263 312 316 167 200 257 192 109 21 107 127 263 244 202 259 268 272 278 279 272 261 257 263 261 246 216 193 203 220 210 163 204 248 252 206 248 271 283 282 276 272 266 272 271 259 258 259 253 252 254 254 255
69 124 51 34 126 174 155 52 119 100 83 87 98 130 157 182 215 220 167 84 358 294 193 238 255 219 190 170 145 154 194 204 287 261 234 225 227 271 326 214 222 346 105 112 351 129 150 243 238 186 287 278 267 270 271 268 272 269 261 255 245 231 219 219 227 217 208 234 253 262 272 275 274 275 279 285 282 262 270 279 274 266 263 256 252 254 255 255
128 158 168 61 73 138 145 81 114 101 69 66 151 206 173 183 209 221 173 156 181 243 190 220 240 203 184 185 173 207 214 185 202 252 193 188 258 222 210 219 160 65 89 136 294 271 183 257 144 91 306 291 290 305 297 273 269 274 273 263 246 234 232 230 230 223 223 242 254 259 269 273 271 270 274 281 282 271 268 272 270 266 264 261 256 254 256 256
127 141 144 107 81 119 166 50 99 107 89 213 205 201 195 205 203 194 205 199 180 171 182 199 200 146 151 189 206 236 233 190 190 212 176 183 238 199 196 214 144 136 177 180 175 163 170 261 21 57 331 285 308 343 314 299 289 276 274 270 251 225 223 225 216 206 209 225 242 253 254 255 264 277 280 266 265 258 256 261 265 268 266 261 257 256 257 257
123 99 98 98 88 238 158 98 86 116 197 219 192 184 198 218 200 176 204 239 187 187 192 181 156 118 126 203 222 237 238 208 205 209 181 188 236 200 203 208 159 154 170 172 175 160 148 148 56 63 302 277 290 322 314 317 311 281 265 264 241 203 207 223 211 199 205 211 212 218 232 244 263 292 288 278 276 261 252 253 257 264 264 255 249 251 255 257